Flag for Australia Weather past 2 weeks in Dubbo, New South Wales, Australia

Now
59 °F

Broken clouds.


Feels Like: 56 °F
Forecast: 47 / 61 °F
Wind: 15 mph from North

Location: Dubbo Airport

Current Time: Jul 25, 2014 at 12:36:59 PM

Latest Report: Jul 25, 2014 at 12:00 PM


Visibility: N/A

Pressure: 30.18 "Hg

Humidity: 72%

Dew point: 50 °F

Location of DubboLocation

Historic Weather in Dubbo — Graph

°F

Dubbo temperature yesterday

Maximum temperature yesterday: 64 °F (at 4:00 PM)
Minimum temperature yesterday: 46 °F (at 4:30 AM)
Average temperature yesterday: 52 °F

Past Weeks' High & Low Weather Summary

 TemperatureHumidityPressure
High64 °F (Jul 24, 4:00 PM)100% (Jul 11, 12:00 AM)30.45 "Hg (Jul 11, 12:00 AM)
Low28 °F (Jul 12, 2:00 AM)38% (Jul 13, 2:00 PM)29.92 "Hg (Jul 10, 11:00 AM)
Average47 °F81%30.17 "Hg
* Reported Jul 10 11:00 AM — Jul 25 11:00 AM, Dubbo, Weather by CustomWeather, © 2014

Note: Actual official high and low records may vary slightly from our data, if they occured in-between our weather recording intervals... More about our weather records

Advertising

Dubbo weather history for previous 24 hours

 ConditionsComfort  
Time TempWeatherWind HumidityBarometerVisibility
11:00 AM
Jul 25
59 °FScattered clouds.10 mph77%30.21 "HgN/A
10:00 AM57 °FPartly sunny.12 mph82%30.18 "HgN/A
9:30 AM55 °FScattered clouds.13 mph82%30.21 "HgN/A
9:00 AM54 °FPartly sunny.14 mph88%30.18 "HgN/A
8:30 AM52 °FMostly cloudy.8 mph100%30.18 "HgN/A
8:00 AM52 °FOvercast.7 mph100%30.21 "HgN/A
7:30 AM52 °FMore clouds than sun.6 mph100%30.21 "HgN/A
7:00 AM52 °FMostly cloudy.3 mph94%30.18 "HgN/A
6:30 AM52 °FBroken clouds.10 mph94%30.15 "HgN/A
6:00 AM52 °FScattered clouds.5 mph94%30.18 "HgN/A
5:30 AM54 °FPassing clouds.16 mph88%30.18 "Hg1 mi
5:00 AM55 °FMostly cloudy.9 mph77%30.09 "HgN/A
4:30 AM55 °FPassing clouds.17 mph82%30.07 "HgN/A
4:00 AM50 °FPassing clouds.8 mph88%30.09 "HgN/A
3:30 AM50 °FPassing clouds.6 mph88%30.09 "HgN/A
3:00 AM48 °FPassing clouds.8 mph94%30.07 "HgN/A
2:30 AM48 °FPassing clouds.9 mph94%30.09 "HgN/A
2:00 AM48 °FPassing clouds.8 mph94%30.09 "HgN/A
1:30 AM46 °FPassing clouds.8 mph93%30.09 "HgN/A
1:00 AM48 °FPassing clouds.8 mph87%30.09 "HgN/A
12:30 AM50 °FPassing clouds.8 mph88%30.09 "HgN/A
12:00 AM50 °FClear.8 mph88%30.09 "HgN/A
11:30 PM
Jul 24
50 °FClear.8 mph82%30.09 "HgN/A
11:00 PM50 °FClear.7 mph88%30.09 "HgN/A
10:30 PM50 °FClear.8 mph88%30.09 "HgN/A
10:00 PM50 °FClear.7 mph88%30.09 "HgN/A
9:30 PM50 °FClear.9 mph88%30.09 "HgN/A
9:00 PM52 °FPassing clouds.7 mph82%30.09 "HgN/A
8:30 PM52 °FPassing clouds.8 mph82%30.09 "HgN/A
8:00 PM50 °FPassing clouds.9 mph88%30.09 "HgN/A
7:30 PM50 °FClear.9 mph82%30.07 "HgN/A
7:00 PM54 °FPassing clouds.7 mph77%30.07 "HgN/A
6:30 PM54 °FClear.8 mph77%30.07 "HgN/A
6:00 PM55 °FPassing clouds.7 mph72%30.07 "HgN/A
5:30 PM57 °FPassing clouds.9 mph67%30.07 "HgN/A
5:00 PM61 °FPartly cloudy.15 mph63%30.07 "HgN/A
4:30 PM64 °FMostly cloudy.14 mph56%30.04 "HgN/A
4:00 PM64 °FBroken clouds.13 mph56%30.04 "HgN/A
3:30 PM63 °FMore clouds than sun.9 mph64%30.04 "HgN/A
3:00 PM61 °FMore clouds than sun.7 mph68%30.04 "HgN/A
2:30 PM61 °FMore clouds than sun.7 mph72%30.04 "HgN/A
2:00 PM59 °FBroken clouds.9 mph72%30.04 "HgN/A
1:30 PM59 °FPartly sunny.9 mph72%30.07 "HgN/A
1:00 PM57 °FOvercast.8 mph72%30.07 "HgN/A
12:30 PM57 °FMore clouds than sun.8 mph72%30.09 "HgN/A
12:00 PM55 °FPartly sunny.7 mph77%30.12 "HgN/A
Weather by CustomWeather, © 2014

See weather overviewHow to use our weather pages